Year,Month,Day,Hour,Minute,Value (Times are PST for temperature in C)
2015,07,06,00,00,17.50
2015,07,06,00,01,17.50
2015,07,06,00,02,17.40
2015,07,06,00,03,17.50
2015,07,06,00,04,17.50
2015,07,06,00,05,17.50
2015,07,06,00,06,17.50
2015,07,06,00,07,17.50
2015,07,06,00,08,17.50
2015,07,06,00,09,17.60
2015,07,06,00,10,17.60
2015,07,06,00,11,17.60
2015,07,06,00,12,17.60
2015,07,06,00,13,17.60
2015,07,06,00,14,17.60
2015,07,06,00,15,17.60
2015,07,06,00,16,17.60
2015,07,06,00,17,17.60
2015,07,06,00,18,17.60
2015,07,06,00,19,17.60
2015,07,06,00,20,17.60
2015,07,06,00,21,17.50
2015,07,06,00,22,17.50
2015,07,06,00,23,17.50
2015,07,06,00,24,17.60
2015,07,06,00,25,17.60
2015,07,06,00,26,17.60
2015,07,06,00,27,17.60
2015,07,06,00,28,17.60
2015,07,06,00,29,17.60
2015,07,06,00,30,17.60
2015,07,06,00,31,17.60
2015,07,06,00,32,17.50
2015,07,06,00,33,17.50
2015,07,06,00,34,17.50
2015,07,06,00,35,17.60
2015,07,06,00,36,17.60
2015,07,06,00,37,17.60
2015,07,06,00,38,17.60
2015,07,06,00,39,17.60
2015,07,06,00,40,17.60
2015,07,06,00,41,17.60
2015,07,06,00,42,17.50
2015,07,06,00,43,17.50
2015,07,06,00,44,17.50
2015,07,06,00,45,17.50
2015,07,06,00,46,17.40
2015,07,06,00,47,17.40
2015,07,06,00,48,17.40
2015,07,06,00,49,17.40
2015,07,06,00,50,17.40
2015,07,06,00,51,17.40
2015,07,06,00,52,17.40
2015,07,06,00,53,17.40
2015,07,06,00,54,17.40
2015,07,06,00,55,17.40
2015,07,06,00,56,17.40
2015,07,06,00,57,17.40
2015,07,06,00,58,17.40
2015,07,06,00,59,17.40
2015,07,06,01,00,17.40
2015,07,06,01,01,17.40
2015,07,06,01,02,17.40
2015,07,06,01,03,17.50
2015,07,06,01,04,17.50
2015,07,06,01,05,17.50
2015,07,06,01,06,17.50
2015,07,06,01,07,17.50
2015,07,06,01,08,17.40
2015,07,06,01,09,17.40
2015,07,06,01,10,17.40
2015,07,06,01,11,17.40
2015,07,06,01,12,17.40
2015,07,06,01,13,17.40
2015,07,06,01,14,17.40
2015,07,06,01,15,17.40
2015,07,06,01,16,17.40
2015,07,06,01,17,17.40
2015,07,06,01,18,17.40
2015,07,06,01,19,17.40
2015,07,06,01,20,17.40
2015,07,06,01,21,17.40
2015,07,06,01,22,17.40
2015,07,06,01,23,17.40
2015,07,06,01,24,17.40
2015,07,06,01,25,17.30
2015,07,06,01,26,17.30
2015,07,06,01,27,17.30
2015,07,06,01,28,17.30
2015,07,06,01,29,17.30
2015,07,06,01,30,17.30
2015,07,06,01,31,17.30
2015,07,06,01,32,17.30
2015,07,06,01,33,17.30
2015,07,06,01,34,17.30
2015,07,06,01,35,17.30
2015,07,06,01,36,17.30
2015,07,06,01,37,17.20
2015,07,06,01,38,17.20
2015,07,06,01,39,17.20
2015,07,06,01,40,17.20
2015,07,06,01,41,17.20
2015,07,06,01,42,17.20
2015,07,06,01,43,17.20
2015,07,06,01,44,17.20
2015,07,06,01,45,17.20
2015,07,06,01,46,17.20
2015,07,06,01,47,17.20
2015,07,06,01,48,17.30
2015,07,06,01,49,17.20
2015,07,06,01,50,17.20
2015,07,06,01,51,17.30
2015,07,06,01,52,17.30
2015,07,06,01,53,17.30
2015,07,06,01,54,17.30
2015,07,06,01,55,17.30
2015,07,06,01,56,17.30
2015,07,06,01,57,17.30
2015,07,06,01,58,17.30
2015,07,06,01,59,17.30
2015,07,06,02,00,17.30
2015,07,06,02,01,17.20
2015,07,06,02,02,17.20
2015,07,06,02,03,17.20
2015,07,06,02,04,17.20
2015,07,06,02,05,17.20
2015,07,06,02,06,17.20
2015,07,06,02,07,17.20
2015,07,06,02,08,17.20
2015,07,06,02,09,17.20
2015,07,06,02,10,17.20
2015,07,06,02,11,17.20
2015,07,06,02,12,17.10
2015,07,06,02,13,17.10
2015,07,06,02,14,17.20
2015,07,06,02,15,17.20
2015,07,06,02,16,17.20
2015,07,06,02,17,17.20
2015,07,06,02,18,17.20
2015,07,06,02,19,17.20
2015,07,06,02,20,17.20
2015,07,06,02,21,17.20
2015,07,06,02,22,17.20
2015,07,06,02,23,17.20
2015,07,06,02,24,17.20
2015,07,06,02,25,17.10
2015,07,06,02,26,17.10
2015,07,06,02,27,17.10
2015,07,06,02,28,17.10
2015,07,06,02,29,17.10
2015,07,06,02,30,17.10
2015,07,06,02,31,17.10
2015,07,06,02,32,17.10
2015,07,06,02,33,17.10
2015,07,06,02,34,17.10
2015,07,06,02,35,17.00
2015,07,06,02,36,17.00
2015,07,06,02,37,17.00
2015,07,06,02,38,16.90
2015,07,06,02,39,16.90
2015,07,06,02,40,16.90
2015,07,06,02,41,16.90
2015,07,06,02,42,16.90
2015,07,06,02,43,16.80
2015,07,06,02,44,16.80
2015,07,06,02,45,16.80
2015,07,06,02,46,16.80
2015,07,06,02,47,16.80
2015,07,06,02,48,16.80
2015,07,06,02,49,16.70
2015,07,06,02,50,16.70
2015,07,06,02,51,16.70
2015,07,06,02,52,16.60
2015,07,06,02,53,16.60
2015,07,06,02,54,16.60
2015,07,06,02,55,16.60
2015,07,06,02,56,16.60
2015,07,06,02,57,16.50
2015,07,06,02,58,16.50
2015,07,06,02,59,16.50
2015,07,06,03,00,16.40
2015,07,06,03,01,16.40
2015,07,06,03,02,16.40
2015,07,06,03,03,16.40
2015,07,06,03,04,16.30
2015,07,06,03,05,16.30
2015,07,06,03,06,16.30
2015,07,06,03,07,16.30
2015,07,06,03,08,16.30
2015,07,06,03,09,16.30
2015,07,06,03,10,16.30
2015,07,06,03,11,16.30
2015,07,06,03,12,16.20
2015,07,06,03,13,16.20
2015,07,06,03,14,16.20
2015,07,06,03,15,16.10
2015,07,06,03,16,16.10
2015,07,06,03,17,16.10
2015,07,06,03,18,16.10
2015,07,06,03,19,16.10
2015,07,06,03,20,16.10
2015,07,06,03,21,16.00
2015,07,06,03,22,16.00
2015,07,06,03,23,16.00
2015,07,06,03,24,16.00
2015,07,06,03,25,16.00
2015,07,06,03,26,16.00
2015,07,06,03,27,16.00
2015,07,06,03,28,16.00
2015,07,06,03,29,16.00
2015,07,06,03,30,16.00
2015,07,06,03,31,16.00
2015,07,06,03,32,16.00
2015,07,06,03,33,16.00
2015,07,06,03,34,16.00
2015,07,06,03,35,15.90
2015,07,06,03,36,15.90
2015,07,06,03,37,15.90
2015,07,06,03,38,15.90
2015,07,06,03,39,16.00
2015,07,06,03,40,16.00
2015,07,06,03,41,16.00
2015,07,06,03,42,16.00
2015,07,06,03,43,16.00
2015,07,06,03,44,16.10
2015,07,06,03,45,16.10
2015,07,06,03,46,16.10
2015,07,06,03,47,16.10
2015,07,06,03,48,16.10
2015,07,06,03,49,16.10
2015,07,06,03,50,16.10
2015,07,06,03,51,16.10
2015,07,06,03,52,16.10
2015,07,06,03,53,16.00
2015,07,06,03,54,16.00
2015,07,06,03,55,16.00
2015,07,06,03,56,16.00
2015,07,06,03,57,15.90
2015,07,06,03,58,15.90
2015,07,06,03,59,15.90
2015,07,06,04,00,15.90
2015,07,06,04,01,15.90
2015,07,06,04,02,15.90
2015,07,06,04,03,15.90
2015,07,06,04,04,15.90
2015,07,06,04,05,15.90
2015,07,06,04,06,15.90
2015,07,06,04,07,15.90
2015,07,06,04,08,15.90
2015,07,06,04,09,15.90
2015,07,06,04,10,15.90
2015,07,06,04,11,15.90
2015,07,06,04,12,15.90
2015,07,06,04,13,15.90
2015,07,06,04,14,15.90
2015,07,06,04,15,15.90
2015,07,06,04,16,15.80
2015,07,06,04,17,15.80
2015,07,06,04,18,15.80
2015,07,06,04,19,15.80
2015,07,06,04,20,15.80
2015,07,06,04,21,15.80
2015,07,06,04,22,15.80
2015,07,06,04,23,15.80
2015,07,06,04,24,15.80
2015,07,06,04,25,15.80
2015,07,06,04,26,15.70
2015,07,06,04,27,15.70
2015,07,06,04,28,15.70
2015,07,06,04,29,15.70
2015,07,06,04,30,15.70
2015,07,06,04,31,15.70
2015,07,06,04,32,15.70
2015,07,06,04,33,15.70
2015,07,06,04,34,15.70
2015,07,06,04,35,15.70
2015,07,06,04,36,15.70
2015,07,06,04,37,15.70
2015,07,06,04,38,15.60
2015,07,06,04,39,15.60
2015,07,06,04,40,15.60
2015,07,06,04,41,15.60
2015,07,06,04,42,15.60
2015,07,06,04,43,15.60
2015,07,06,04,44,15.60
2015,07,06,04,45,15.60
2015,07,06,04,46,15.50
2015,07,06,04,47,15.50
2015,07,06,04,48,15.40
2015,07,06,04,49,15.40
2015,07,06,04,50,15.40
2015,07,06,04,51,15.30
2015,07,06,04,52,15.30
2015,07,06,04,53,15.30
2015,07,06,04,54,15.30
2015,07,06,04,55,15.30
2015,07,06,04,56,15.30
2015,07,06,04,57,15.30
2015,07,06,04,58,15.30
2015,07,06,04,59,15.30
2015,07,06,05,00,15.20
2015,07,06,05,01,15.20
2015,07,06,05,02,15.20
2015,07,06,05,03,15.20
2015,07,06,05,04,15.20
2015,07,06,05,05,15.20
2015,07,06,05,06,15.10
2015,07,06,05,07,15.10
2015,07,06,05,08,15.00
2015,07,06,05,09,15.00
2015,07,06,05,10,15.00
2015,07,06,05,11,15.00
2015,07,06,05,12,15.00
2015,07,06,05,13,15.00
2015,07,06,05,14,15.00
2015,07,06,05,15,15.00
2015,07,06,05,16,15.00
2015,07,06,05,17,15.00
2015,07,06,05,18,15.00
2015,07,06,05,19,15.00
2015,07,06,05,20,15.00
2015,07,06,05,21,15.00
2015,07,06,05,22,15.00
2015,07,06,05,23,15.00
2015,07,06,05,24,15.00
2015,07,06,05,25,15.00
2015,07,06,05,26,15.00
2015,07,06,05,27,15.00
2015,07,06,05,28,15.00
2015,07,06,05,29,15.10
2015,07,06,05,30,15.10
2015,07,06,05,31,15.10
2015,07,06,05,32,15.10
2015,07,06,05,33,15.10
2015,07,06,05,34,15.10
2015,07,06,05,35,15.20
2015,07,06,05,36,15.20
2015,07,06,05,37,15.20
2015,07,06,05,38,15.20
2015,07,06,05,39,15.20
2015,07,06,05,40,15.20
2015,07,06,05,41,15.20
2015,07,06,05,42,15.10
2015,07,06,05,43,15.10
2015,07,06,05,44,15.10
2015,07,06,05,45,15.10
2015,07,06,05,46,15.00
2015,07,06,05,47,15.00
2015,07,06,05,48,15.00
2015,07,06,05,49,15.00
2015,07,06,05,50,15.00
2015,07,06,05,51,15.00
2015,07,06,05,52,15.00
2015,07,06,05,53,15.00
2015,07,06,05,54,15.00
2015,07,06,05,55,15.00
2015,07,06,05,56,15.00
2015,07,06,05,57,15.00
2015,07,06,05,58,15.00
2015,07,06,05,59,15.00
2015,07,06,06,00,15.00
2015,07,06,06,01,15.00
2015,07,06,06,02,15.00
2015,07,06,06,03,15.00
2015,07,06,06,04,15.00
2015,07,06,06,05,15.00
2015,07,06,06,06,15.00
2015,07,06,06,07,15.00
2015,07,06,06,08,15.00
2015,07,06,06,09,15.00
2015,07,06,06,10,15.00
2015,07,06,06,11,15.00
2015,07,06,06,12,15.00
2015,07,06,06,13,15.00
2015,07,06,06,14,15.00
2015,07,06,06,15,15.00
2015,07,06,06,16,15.00
2015,07,06,06,17,15.00
2015,07,06,06,18,15.00
2015,07,06,06,19,15.00
2015,07,06,06,20,15.00
2015,07,06,06,21,15.00
2015,07,06,06,22,15.00
2015,07,06,06,23,15.00
2015,07,06,06,24,15.00
2015,07,06,06,25,15.00
2015,07,06,06,26,15.00
2015,07,06,06,27,15.00
2015,07,06,06,28,15.10
2015,07,06,06,29,15.20
2015,07,06,06,30,15.20
2015,07,06,06,31,15.30
2015,07,06,06,32,15.30
2015,07,06,06,33,15.30
2015,07,06,06,34,15.30
2015,07,06,06,35,15.30
2015,07,06,06,36,15.30
2015,07,06,06,37,15.30
2015,07,06,06,38,15.30
2015,07,06,06,39,15.30
2015,07,06,06,40,15.30
2015,07,06,06,41,15.30
2015,07,06,06,42,15.30
2015,07,06,06,43,15.30
2015,07,06,06,44,15.30
2015,07,06,06,45,15.30
2015,07,06,06,46,15.40
2015,07,06,06,47,15.40
2015,07,06,06,48,15.40
2015,07,06,06,49,15.40
2015,07,06,06,50,15.40
2015,07,06,06,51,15.40
2015,07,06,06,52,15.40
2015,07,06,06,53,15.40
2015,07,06,06,54,15.40
2015,07,06,06,55,15.40
2015,07,06,06,56,15.40
2015,07,06,06,57,15.40
2015,07,06,06,58,15.40
2015,07,06,06,59,15.40
2015,07,06,07,00,15.40
2015,07,06,07,01,15.40
2015,07,06,07,02,15.40
2015,07,06,07,03,15.40
2015,07,06,07,04,15.40
2015,07,06,07,05,15.50
2015,07,06,07,06,15.50
2015,07,06,07,07,15.50
2015,07,06,07,08,15.50
2015,07,06,07,09,15.50
2015,07,06,07,10,15.60
2015,07,06,07,11,15.60
2015,07,06,07,12,15.60
2015,07,06,07,13,15.60
2015,07,06,07,14,15.60
2015,07,06,07,15,15.60
2015,07,06,07,16,15.70
2015,07,06,07,17,15.70
2015,07,06,07,18,15.70
2015,07,06,07,19,15.70
2015,07,06,07,20,15.70
2015,07,06,07,21,15.70
2015,07,06,07,22,15.70
2015,07,06,07,23,15.80
2015,07,06,07,24,15.80
2015,07,06,07,25,15.80
2015,07,06,07,26,15.80
2015,07,06,07,27,15.90
2015,07,06,07,28,15.90
2015,07,06,07,29,15.90
2015,07,06,07,30,15.90
2015,07,06,07,31,16.00
2015,07,06,07,32,16.00
2015,07,06,07,33,16.00
2015,07,06,07,34,16.10
2015,07,06,07,35,16.10
2015,07,06,07,36,16.10
2015,07,06,07,37,16.10
2015,07,06,07,38,16.10
2015,07,06,07,39,16.10
2015,07,06,07,40,16.20
2015,07,06,07,41,16.20
2015,07,06,07,42,16.20
2015,07,06,07,43,16.20
2015,07,06,07,44,16.20
2015,07,06,07,45,16.30
2015,07,06,07,46,16.30
2015,07,06,07,47,16.30
2015,07,06,07,48,16.30
2015,07,06,07,49,16.30
2015,07,06,07,50,16.40
2015,07,06,07,51,16.40
2015,07,06,07,52,16.40
2015,07,06,07,53,16.40
2015,07,06,07,54,16.40
2015,07,06,07,55,16.50
2015,07,06,07,56,16.50
2015,07,06,07,57,16.50
2015,07,06,07,58,16.60
2015,07,06,07,59,16.60
2015,07,06,08,00,16.60
2015,07,06,08,01,16.70
2015,07,06,08,02,16.70
2015,07,06,08,03,16.70
2015,07,06,08,04,16.80
2015,07,06,08,05,16.80
2015,07,06,08,06,16.80
2015,07,06,08,07,16.80
2015,07,06,08,08,16.80
2015,07,06,08,09,16.90
2015,07,06,08,10,16.90
2015,07,06,08,11,16.90
2015,07,06,08,12,17.00
2015,07,06,08,13,17.00
2015,07,06,08,14,17.10
2015,07,06,08,15,17.10
2015,07,06,08,16,17.20
2015,07,06,08,17,17.20
2015,07,06,08,18,17.20
2015,07,06,08,19,17.30
2015,07,06,08,20,17.30
2015,07,06,08,21,17.30
2015,07,06,08,22,17.40
2015,07,06,08,23,17.40
2015,07,06,08,24,17.50
2015,07,06,08,25,17.50
2015,07,06,08,26,17.60
2015,07,06,08,27,17.70
2015,07,06,08,28,17.70
2015,07,06,08,29,17.70
2015,07,06,08,30,17.80
2015,07,06,08,31,17.80
2015,07,06,08,32,17.90
2015,07,06,08,33,17.90
2015,07,06,08,34,18.00
2015,07,06,08,35,18.00
2015,07,06,08,36,18.00
2015,07,06,08,37,18.10
2015,07,06,08,38,18.20
2015,07,06,08,39,18.30
2015,07,06,08,40,18.40
2015,07,06,08,41,18.50
2015,07,06,08,42,18.60
2015,07,06,08,43,18.70
2015,07,06,08,44,18.80
2015,07,06,08,45,18.90
2015,07,06,08,46,19.00
2015,07,06,08,47,19.10
2015,07,06,08,48,19.20
2015,07,06,08,49,19.20
2015,07,06,08,50,19.30
2015,07,06,08,51,19.40
2015,07,06,08,52,19.50
2015,07,06,08,53,19.60
2015,07,06,08,54,19.70
2015,07,06,08,55,19.70
2015,07,06,08,56,19.70
2015,07,06,08,57,19.80
2015,07,06,08,58,19.80
2015,07,06,08,59,19.80
2015,07,06,09,00,19.90
2015,07,06,09,01,19.90
2015,07,06,09,02,20.00
2015,07,06,09,03,20.00
2015,07,06,09,04,20.00
2015,07,06,09,05,20.10
2015,07,06,09,06,20.10
2015,07,06,09,07,20.10
2015,07,06,09,08,20.20
2015,07,06,09,09,20.20
2015,07,06,09,10,20.20
2015,07,06,09,11,20.20
2015,07,06,09,12,20.20
2015,07,06,09,13,20.30
2015,07,06,09,14,20.30
2015,07,06,09,15,20.30
2015,07,06,09,16,20.40
2015,07,06,09,17,20.40
2015,07,06,09,18,20.50
2015,07,06,09,19,20.60
2015,07,06,09,20,20.60
2015,07,06,09,21,20.70
2015,07,06,09,22,20.70
2015,07,06,09,23,20.70
2015,07,06,09,24,20.70
2015,07,06,09,25,20.80
2015,07,06,09,26,20.80
2015,07,06,09,27,20.80
2015,07,06,09,28,20.70
2015,07,06,09,29,20.60
2015,07,06,09,30,20.50
2015,07,06,09,31,20.50
2015,07,06,09,32,20.30
2015,07,06,09,33,20.20
2015,07,06,09,34,20.20
2015,07,06,09,35,20.10
2015,07,06,09,36,20.00
2015,07,06,09,37,20.00
2015,07,06,09,38,20.00
2015,07,06,09,39,19.90
2015,07,06,09,40,19.90
2015,07,06,09,41,19.90
2015,07,06,09,42,19.90
2015,07,06,09,43,19.90
2015,07,06,09,44,19.80
2015,07,06,09,45,19.80
2015,07,06,09,46,19.80
2015,07,06,09,47,19.80
2015,07,06,09,48,19.80
2015,07,06,09,49,19.80
2015,07,06,09,50,19.80
2015,07,06,09,51,19.80
2015,07,06,09,52,19.80
2015,07,06,09,53,19.80
2015,07,06,09,54,19.80
2015,07,06,09,55,19.80
2015,07,06,09,56,19.90
2015,07,06,09,57,19.90
2015,07,06,09,58,19.90
2015,07,06,09,59,19.90
2015,07,06,10,00,19.90
2015,07,06,10,01,19.90
2015,07,06,10,02,19.80
2015,07,06,10,03,19.80
2015,07,06,10,04,19.80
2015,07,06,10,05,19.80
2015,07,06,10,06,19.80
2015,07,06,10,07,19.80
2015,07,06,10,08,19.80
2015,07,06,10,09,19.80
2015,07,06,10,10,19.80
2015,07,06,10,11,19.90
2015,07,06,10,12,19.90
2015,07,06,10,13,19.90
2015,07,06,10,14,20.00
2015,07,06,10,15,20.00
2015,07,06,10,16,20.00
2015,07,06,10,17,20.00
2015,07,06,10,18,20.10
2015,07,06,10,19,20.10
2015,07,06,10,20,20.20
2015,07,06,10,21,20.30
2015,07,06,10,22,20.30
2015,07,06,10,23,20.30
2015,07,06,10,24,20.40
2015,07,06,10,25,20.40
2015,07,06,10,26,20.40
2015,07,06,10,27,20.30
2015,07,06,10,28,20.30
2015,07,06,10,29,20.20
2015,07,06,10,30,20.20
2015,07,06,10,31,20.10
2015,07,06,10,32,20.10
2015,07,06,10,33,20.10
2015,07,06,10,34,20.20
2015,07,06,10,35,20.20
2015,07,06,10,36,20.30
2015,07,06,10,37,20.30
2015,07,06,10,38,20.30
2015,07,06,10,39,20.30
2015,07,06,10,40,20.40
2015,07,06,10,41,20.40
2015,07,06,10,42,20.40
2015,07,06,10,43,20.40
2015,07,06,10,44,20.30
2015,07,06,10,45,20.30
2015,07,06,10,46,20.30
2015,07,06,10,47,20.30
2015,07,06,10,48,20.20
2015,07,06,10,49,20.20
2015,07,06,10,50,20.20
2015,07,06,10,51,20.20
2015,07,06,10,52,20.20
2015,07,06,10,53,20.20
2015,07,06,10,54,20.20
2015,07,06,10,55,20.20
2015,07,06,10,56,20.30
2015,07,06,10,57,20.30
2015,07,06,10,58,20.30
2015,07,06,10,59,20.30
2015,07,06,11,00,20.30
2015,07,06,11,01,20.30
2015,07,06,11,02,20.30
2015,07,06,11,03,20.30
2015,07,06,11,04,20.30
2015,07,06,11,05,20.40
2015,07,06,11,06,20.40
2015,07,06,11,07,20.40
2015,07,06,11,08,20.40
2015,07,06,11,09,20.40
2015,07,06,11,10,20.40
2015,07,06,11,11,20.40
2015,07,06,11,12,20.40
2015,07,06,11,13,20.40
2015,07,06,11,14,20.30
2015,07,06,11,15,20.30
2015,07,06,11,16,20.30
2015,07,06,11,17,20.20
2015,07,06,11,18,20.30
2015,07,06,11,19,20.20
2015,07,06,11,20,20.20
2015,07,06,11,21,20.20
2015,07,06,11,22,20.30
2015,07,06,11,23,20.30
2015,07,06,11,24,20.30
2015,07,06,11,25,20.40
2015,07,06,11,26,20.50
2015,07,06,11,27,20.60
2015,07,06,11,28,20.70
2015,07,06,11,29,20.70
2015,07,06,11,30,20.80
2015,07,06,11,31,20.90
2015,07,06,11,32,21.00
2015,07,06,11,33,21.00
2015,07,06,11,34,21.00
2015,07,06,11,35,21.10
2015,07,06,11,36,21.20
2015,07,06,11,37,21.20
2015,07,06,11,38,21.30
2015,07,06,11,39,21.30
2015,07,06,11,40,21.30
2015,07,06,11,41,21.30
2015,07,06,11,42,21.30
2015,07,06,11,43,21.20
2015,07,06,11,44,21.10
2015,07,06,11,45,21.10
2015,07,06,11,46,21.00
2015,07,06,11,47,20.90
2015,07,06,11,48,20.90
2015,07,06,11,49,20.80
2015,07,06,11,50,20.80
2015,07,06,11,51,20.80
2015,07,06,11,52,20.80
2015,07,06,11,53,20.80
2015,07,06,11,54,20.80
2015,07,06,11,55,20.80
2015,07,06,11,56,20.80
2015,07,06,11,57,20.70
2015,07,06,11,58,20.70
2015,07,06,11,59,20.70
2015,07,06,12,00,20.70
2015,07,06,12,01,20.70
2015,07,06,12,02,20.70
2015,07,06,12,03,20.80
2015,07,06,12,04,20.80
2015,07,06,12,05,20.90
2015,07,06,12,06,21.00
2015,07,06,12,07,21.10
2015,07,06,12,08,21.10
2015,07,06,12,09,21.10
2015,07,06,12,10,21.10
2015,07,06,12,11,21.00
2015,07,06,12,12,20.90
2015,07,06,12,13,20.80
2015,07,06,12,14,20.80
2015,07,06,12,15,20.70
2015,07,06,12,16,20.60
2015,07,06,12,17,20.50
2015,07,06,12,18,20.40
2015,07,06,12,19,20.30
2015,07,06,12,20,20.20
2015,07,06,12,21,20.20
2015,07,06,12,22,20.20
2015,07,06,12,23,20.10
2015,07,06,12,24,20.20
2015,07,06,12,25,20.20
2015,07,06,12,26,20.30
2015,07,06,12,27,20.40
2015,07,06,12,28,20.40
2015,07,06,12,29,20.50
2015,07,06,12,30,20.60
2015,07,06,12,31,20.70
2015,07,06,12,32,20.80
2015,07,06,12,33,20.90
2015,07,06,12,34,21.00
2015,07,06,12,35,21.10
2015,07,06,12,36,21.10
2015,07,06,12,37,21.20
2015,07,06,12,38,21.30
2015,07,06,12,39,21.30
2015,07,06,12,40,21.40
2015,07,06,12,41,21.40
2015,07,06,12,42,21.40
2015,07,06,12,43,21.50
2015,07,06,12,44,21.50
2015,07,06,12,45,21.50
2015,07,06,12,46,21.40
2015,07,06,12,47,21.30
2015,07,06,12,48,21.20
2015,07,06,12,49,21.20
2015,07,06,12,50,21.20
2015,07,06,12,51,21.20
2015,07,06,12,52,21.10
2015,07,06,12,53,21.10
2015,07,06,12,54,21.10
2015,07,06,12,55,21.10
2015,07,06,12,56,21.10
2015,07,06,12,57,21.10
2015,07,06,12,58,21.00
2015,07,06,12,59,21.10
2015,07,06,13,00,20.90
2015,07,06,13,01,20.90
2015,07,06,13,02,20.80
2015,07,06,13,03,20.80
2015,07,06,13,04,20.80
2015,07,06,13,05,20.70
2015,07,06,13,06,20.60
2015,07,06,13,07,20.50
2015,07,06,13,08,20.40
2015,07,06,13,09,20.30
2015,07,06,13,10,20.30
2015,07,06,13,11,20.40
2015,07,06,13,12,20.40
2015,07,06,13,13,20.40
2015,07,06,13,14,20.40
2015,07,06,13,15,20.40
2015,07,06,13,16,20.40
2015,07,06,13,17,20.40
2015,07,06,13,18,20.30
2015,07,06,13,19,20.30
2015,07,06,13,20,20.30
2015,07,06,13,21,20.30
2015,07,06,13,22,20.30
2015,07,06,13,23,20.30
2015,07,06,13,24,20.30
2015,07,06,13,25,20.30
2015,07,06,13,26,20.40
2015,07,06,13,27,20.40
2015,07,06,13,28,20.50
2015,07,06,13,29,20.60
2015,07,06,13,30,20.60
2015,07,06,13,31,20.50
2015,07,06,13,32,20.50
2015,07,06,13,33,20.50
2015,07,06,13,34,20.60
2015,07,06,13,35,20.70
2015,07,06,13,36,20.80
2015,07,06,13,37,20.80
2015,07,06,13,38,20.90
2015,07,06,13,39,20.90
2015,07,06,13,40,21.00
2015,07,06,13,41,21.00
2015,07,06,13,42,20.90
2015,07,06,13,43,20.90
2015,07,06,13,44,20.90
2015,07,06,13,45,20.90
2015,07,06,13,46,20.90
2015,07,06,13,47,20.80
2015,07,06,13,48,20.80
2015,07,06,13,49,20.80
2015,07,06,13,50,20.80
2015,07,06,13,51,20.80
2015,07,06,13,52,20.80
2015,07,06,13,53,20.70
2015,07,06,13,54,20.60
2015,07,06,13,55,20.60
2015,07,06,13,56,20.60
2015,07,06,13,57,20.70
2015,07,06,13,58,20.70
2015,07,06,13,59,20.70
2015,07,06,14,00,20.60
2015,07,06,14,01,20.60
2015,07,06,14,02,20.60
2015,07,06,14,03,20.60
2015,07,06,14,04,20.70
2015,07,06,14,05,20.70
2015,07,06,14,06,20.80
2015,07,06,14,07,20.80
2015,07,06,14,08,20.80
2015,07,06,14,09,20.90
2015,07,06,14,10,20.90
2015,07,06,14,11,21.00
2015,07,06,14,12,21.10
2015,07,06,14,13,21.20
2015,07,06,14,14,21.20
2015,07,06,14,15,21.20
2015,07,06,14,16,21.20
2015,07,06,14,17,21.30
2015,07,06,14,18,21.30
2015,07,06,14,19,21.40
2015,07,06,14,20,21.50
2015,07,06,14,21,21.50
2015,07,06,14,22,21.60
2015,07,06,14,23,21.60
2015,07,06,14,24,21.60
2015,07,06,14,25,21.50
2015,07,06,14,26,21.50
2015,07,06,14,27,21.60
2015,07,06,14,28,21.50
2015,07,06,14,29,21.50
2015,07,06,14,30,21.50
2015,07,06,14,31,21.50
2015,07,06,14,32,21.60
2015,07,06,14,33,21.60
2015,07,06,14,34,21.60
2015,07,06,14,35,21.60
2015,07,06,14,36,21.60
2015,07,06,14,37,21.70
2015,07,06,14,38,21.70
2015,07,06,14,39,21.70
2015,07,06,14,40,21.70
2015,07,06,14,41,21.70
2015,07,06,14,42,21.70
2015,07,06,14,43,21.70
2015,07,06,14,44,21.80
2015,07,06,14,45,21.80
2015,07,06,14,46,21.90
2015,07,06,14,47,21.90
2015,07,06,14,48,21.90
2015,07,06,14,49,21.90
2015,07,06,14,50,21.80
2015,07,06,14,51,21.90
2015,07,06,14,52,21.90
2015,07,06,14,53,21.80
2015,07,06,14,54,21.80
2015,07,06,14,55,21.70
2015,07,06,14,56,21.60
2015,07,06,14,57,21.60
2015,07,06,14,58,21.60
2015,07,06,14,59,21.60
2015,07,06,15,00,21.60
2015,07,06,15,01,21.60
2015,07,06,15,02,21.70
2015,07,06,15,03,21.70
2015,07,06,15,04,21.70
2015,07,06,15,05,21.70
2015,07,06,15,06,21.70
2015,07,06,15,07,21.80
2015,07,06,15,08,21.80
2015,07,06,15,09,21.90
2015,07,06,15,10,22.00
2015,07,06,15,11,22.10
2015,07,06,15,12,22.10
2015,07,06,15,13,22.10
2015,07,06,15,14,22.20
2015,07,06,15,15,22.20
2015,07,06,15,16,22.10
2015,07,06,15,17,22.10
2015,07,06,15,18,22.10
2015,07,06,15,19,22.10
2015,07,06,15,20,22.10
2015,07,06,15,21,22.10
2015,07,06,15,22,22.10
2015,07,06,15,23,22.10
2015,07,06,15,24,22.00
2015,07,06,15,25,21.90
2015,07,06,15,26,21.90
2015,07,06,15,27,22.00
2015,07,06,15,28,22.10
2015,07,06,15,29,22.10
2015,07,06,15,30,22.10
2015,07,06,15,31,22.10
2015,07,06,15,32,22.10
2015,07,06,15,33,22.10
2015,07,06,15,34,22.10
2015,07,06,15,35,22.00
2015,07,06,15,36,21.90
2015,07,06,15,37,21.90
2015,07,06,15,38,21.90
2015,07,06,15,39,22.00
2015,07,06,15,40,22.00
2015,07,06,15,41,22.10
2015,07,06,15,42,22.10
2015,07,06,15,43,22.20
2015,07,06,15,44,22.40
2015,07,06,15,45,22.50
2015,07,06,15,46,22.70
2015,07,06,15,47,22.80
2015,07,06,15,48,23.00
2015,07,06,15,49,23.20
2015,07,06,15,50,23.30
2015,07,06,15,51,23.40
2015,07,06,15,52,23.50
2015,07,06,15,53,23.60
2015,07,06,15,54,23.60
2015,07,06,15,55,23.70
2015,07,06,15,56,23.80
2015,07,06,15,57,23.90
2015,07,06,15,58,24.00
2015,07,06,15,59,24.10
2015,07,06,16,00,24.10
2015,07,06,16,01,24.20
2015,07,06,16,02,24.20
2015,07,06,16,03,24.20
2015,07,06,16,04,24.20
2015,07,06,16,05,24.30
2015,07,06,16,06,24.30
2015,07,06,16,07,24.30
2015,07,06,16,08,24.40
2015,07,06,16,09,24.40
2015,07,06,16,10,24.50
2015,07,06,16,11,24.60
2015,07,06,16,12,24.60
2015,07,06,16,13,24.70
2015,07,06,16,14,24.70
2015,07,06,16,15,24.60
2015,07,06,16,16,24.50
2015,07,06,16,17,24.40
2015,07,06,16,18,24.30
2015,07,06,16,19,24.30
2015,07,06,16,20,24.30
2015,07,06,16,21,24.20
2015,07,06,16,22,24.10
2015,07,06,16,23,24.10
2015,07,06,16,24,24.00
2015,07,06,16,25,23.90
2015,07,06,16,26,23.90
2015,07,06,16,27,23.80
2015,07,06,16,28,23.80
2015,07,06,16,29,23.80
2015,07,06,16,30,23.80
2015,07,06,16,31,23.90
2015,07,06,16,32,23.90
2015,07,06,16,33,23.90
2015,07,06,16,34,23.90
2015,07,06,16,35,24.00
2015,07,06,16,36,24.00
2015,07,06,16,37,24.10
2015,07,06,16,38,24.10
2015,07,06,16,39,24.20
2015,07,06,16,40,24.20
2015,07,06,16,41,24.30
2015,07,06,16,42,24.30
2015,07,06,16,43,24.30
2015,07,06,16,44,24.40
2015,07,06,16,45,24.40
2015,07,06,16,46,24.50
2015,07,06,16,47,24.60
2015,07,06,16,48,24.60
2015,07,06,16,49,24.50
2015,07,06,16,50,24.40
2015,07,06,16,51,24.30
2015,07,06,16,52,24.20
2015,07,06,16,53,24.10
2015,07,06,16,54,24.10
2015,07,06,16,55,24.00
2015,07,06,16,56,24.00
2015,07,06,16,57,24.00
2015,07,06,16,58,23.90
2015,07,06,16,59,23.80
2015,07,06,17,00,23.70
2015,07,06,17,01,23.50
2015,07,06,17,02,23.40
2015,07,06,17,03,23.20
2015,07,06,17,04,23.00
2015,07,06,17,05,23.00
2015,07,06,17,06,22.90
2015,07,06,17,07,22.80
2015,07,06,17,08,22.70
2015,07,06,17,09,22.70
2015,07,06,17,10,22.70
2015,07,06,17,11,22.80
2015,07,06,17,12,22.80
2015,07,06,17,13,22.90
2015,07,06,17,14,22.90
2015,07,06,17,15,22.90
2015,07,06,17,16,22.80
2015,07,06,17,17,22.80
2015,07,06,17,18,22.80
2015,07,06,17,19,22.80